Weather History for Blue Canyon, CA

Change the Weather History Date:

Thursday, March 7, 2013

  Actual Average Record
Temperature  
Mean Temperature 32 °F -  
Max Temperature 35 °F 46 °F 65 °F (1972)
Min Temperature 28 °F 33 °F 20 °F (1964)
Degree Days  
Heating Degree Days 34    
Moisture  
Dew Point 28 °F    
Average Humidity 85    
Maximum Humidity 96    
Minimum Humidity 70    
Precipitation  
Precipitation 0.02 in - - ()
Sea Level Pressure  
Sea Level Pressure 29.88 in    
Wind  
Wind Speed 3 mph (SW)    
Max Wind Speed 9 mph    
Max Gust Speed -    
Visibility 8 miles    
Events Snow    
Averages and records for this station are not official NWS values.
T = Trace of Precipitation, MM = Missing Value Source: NWS Daily Summary

Daily Weather History Graph

Daily Weather History Graph

Search for Another Location

Airport:

Trip Planner

Search our weather history database for the weather conditions in past years. The results will help you decide how hot, cold, wet, or windy it might be!

Date:

Astronomy

Mar. 07, 2013 Rise Set
Actual Time 6:26 AM PST 6:01 PM PST
Civil Twilight 5:59 AM PST 6:28 PM PST
Nautical Twilight 5:28 AM PST 6:59 PM PST
Astronomical Twilight 4:57 AM PST 7:31 PM PST
Moon 3:28 AM PST (3/7) 1:56 PM PST (3/7)
Length of Visible Light 12h 29m
Length of Day
11h 35m
Waning Crescent, 19% of the Moon is Illuminated
Mar 7
Waning Crescent
Mar 11
New
Mar 19
First Quarter
Mar 27
Full
Apr 2
Last Quarter

Hourly Weather History & Observations

Time (PST) Temp. Windchill Dew Point Humidity Pressure Visibility Wind Dir Wind Speed Gust Speed Precip Events Conditions
12:52 AM 28.0 °F 24.2 °F 25.0 °F 88% 30.00 in 10.0 mi ESE 3.5 mph - N/A   Scattered Clouds
1:52 AM 28.0 °F 24.2 °F 21.9 °F 78% 29.99 in 10.0 mi East 3.5 mph - N/A   Partly Cloudy
2:52 AM 28.0 °F - 21.0 °F 75% 29.96 in 10.0 mi Calm Calm - N/A   Partly Cloudy
3:52 AM 28.9 °F 25.2 °F 21.0 °F 72% 29.94 in 10.0 mi ESE 3.5 mph - N/A   Overcast
4:52 AM 28.9 °F - 21.0 °F 72% 29.94 in 10.0 mi Calm Calm - N/A   Overcast
5:52 AM 28.9 °F - 21.9 °F 75% 29.94 in 10.0 mi Calm Calm - N/A   Overcast
6:52 AM 30.0 °F - 21.9 °F 72% 29.94 in 10.0 mi Calm Calm - N/A   Overcast
7:52 AM 30.0 °F - 24.1 °F 79% 29.94 in 10.0 mi Calm Calm - N/A   Mostly Cloudy
8:52 AM 32.0 °F - 25.0 °F 75% 29.93 in 10.0 mi Calm Calm - N/A   Clear
9:52 AM 34.0 °F 29.8 °F 25.0 °F 70% 29.91 in 10.0 mi Variable 4.6 mph - N/A   Clear
10:52 AM 35.1 °F 31.0 °F 26.1 °F 70% 29.91 in 10.0 mi SSE 4.6 mph - N/A   Partly Cloudy
11:52 AM 35.1 °F 29.3 °F 26.1 °F 70% 29.91 in 10.0 mi Variable 6.9 mph - N/A   Mostly Cloudy
12:09 PM 35.6 °F 28.6 °F 26.6 °F 70% 29.88 in 10.0 mi South 9.2 mph - N/A   Mostly Cloudy
12:49 PM 33.8 °F 29.6 °F 30.2 °F 87% 29.87 in 10.0 mi West 4.6 mph - N/A   Overcast
12:52 PM 34.0 °F 29.8 °F 30.0 °F 85% 29.91 in 10.0 mi Variable 4.6 mph - N/A   Overcast
12:59 PM 33.8 °F 29.6 °F 30.2 °F 87% 29.87 in 10.0 mi SW 4.6 mph - N/A   Overcast
1:09 PM 33.8 °F 28.6 °F 30.2 °F 87% 29.87 in 10.0 mi West 5.8 mph - N/A   Overcast
1:33 PM 33.8 °F 27.7 °F 28.4 °F 81% 29.86 in 10.0 mi WSW 6.9 mph - N/A   Overcast
1:40 PM 33.8 °F 29.6 °F 28.4 °F 81% 29.86 in 10.0 mi WSW 4.6 mph - N/A   Overcast
1:52 PM 34.0 °F 28.0 °F 28.9 °F 82% 29.90 in 10.0 mi West 6.9 mph - N/A   Overcast
2:07 PM 33.8 °F 27.0 °F 28.4 °F 81% 29.86 in 10.0 mi SSW 8.1 mph - N/A   Overcast
2:52 PM 34.0 °F 31.0 °F 28.9 °F 82% 29.90 in 10.0 mi West 3.5 mph - N/A   Overcast
3:09 PM 33.8 °F 30.8 °F 28.4 °F 81% 29.86 in 4.0 mi Variable 3.5 mph - 0.00 in Snow Light Snow
3:15 PM 33.8 °F 28.6 °F 28.4 °F 81% 29.86 in 2.5 mi South 5.8 mph - 0.00 in Snow Light Snow
3:18 PM 32.0 °F 26.4 °F 28.4 °F 87% 29.86 in 1.8 mi SSE 5.8 mph - 0.00 in Snow Light Snow
3:22 PM 32.0 °F 25.6 °F 30.2 °F 93% 29.86 in 1.2 mi South 6.9 mph - 0.00 in Snow Light Snow
3:31 PM 32.0 °F 27.5 °F 30.2 °F 93% 29.86 in 0.8 mi South 4.6 mph - 0.00 in Snow Light Snow
3:41 PM 32.0 °F 28.7 °F 30.2 °F 93% 29.86 in 1.0 mi SSE 3.5 mph - 0.01 in Snow Light Snow
3:52 PM 32.0 °F 28.7 °F 30.9 °F 96% 29.90 in 1.0 mi SSE 3.5 mph - 0.01 in Snow Light Snow
3:59 PM 32.0 °F - 30.2 °F 93% 29.86 in 1.0 mi Calm Calm - 0.00 in Snow Light Snow
4:06 PM 32.0 °F - 30.2 °F 93% 29.86 in 1.2 mi Calm Calm - 0.00 in Snow Light Snow
4:12 PM 32.0 °F - 30.2 °F 93% 29.86 in 2.0 mi Calm Calm - 0.01 in Snow Light Snow
4:24 PM 32.0 °F - 30.2 °F 93% 29.85 in 1.5 mi Calm Calm - 0.01 in Snow Light Snow
4:31 PM 32.0 °F - 30.2 °F 93% 29.85 in 2.0 mi Calm Calm - 0.01 in Snow Light Snow
4:42 PM 33.8 °F - 30.2 °F 87% 29.85 in 5.0 mi Calm Calm - 0.01 in Snow Light Snow
4:52 PM 33.1 °F - 30.0 °F 89% 29.89 in 6.0 mi Calm Calm - 0.01 in Snow Light Snow
5:12 PM 33.8 °F - 28.4 °F 81% 29.85 in 10.0 mi Calm Calm - 0.00 in   Overcast
5:26 PM 32.0 °F 28.7 °F 28.4 °F 87% 29.85 in 10.0 mi NNW 3.5 mph - 0.00 in   Overcast
5:48 PM 32.0 °F 28.7 °F 30.2 °F 93% 29.85 in 8.0 mi NNW 3.5 mph - 0.00 in   Overcast
5:52 PM 32.0 °F 28.7 °F 30.0 °F 92% 29.89 in 5.0 mi NNW 3.5 mph - 0.00 in Snow Light Snow
6:45 PM 32.0 °F 28.7 °F 30.2 °F 93% 29.85 in 4.0 mi NNW 3.5 mph - 0.00 in Snow Light Snow
6:52 PM 32.0 °F 26.4 °F 30.0 °F 92% 29.89 in 6.0 mi NNW 5.8 mph - 0.00 in   Overcast
7:02 PM 32.0 °F 26.4 °F 30.2 °F 93% 29.85 in 10.0 mi NNW 5.8 mph - N/A   Overcast
7:29 PM 32.0 °F - 30.2 °F 93% 29.85 in 10.0 mi Calm Calm - N/A   Overcast
7:52 PM 32.0 °F 28.7 °F 30.0 °F 92% 29.89 in 10.0 mi NNE 3.5 mph - N/A   Overcast
7:59 PM 32.0 °F 28.7 °F 30.2 °F 93% 29.85 in 10.0 mi North 3.5 mph - N/A   Overcast
8:52 PM 32.0 °F - 30.0 °F 92% 29.88 in 10.0 mi Calm Calm - N/A   Overcast
9:52 PM 30.0 °F - 28.0 °F 92% 29.88 in 10.0 mi Calm Calm - N/A   Scattered Clouds
10:52 PM 32.0 °F 28.7 °F 26.1 °F 79% 29.85 in 10.0 mi NE 3.5 mph - N/A   Mostly Cloudy
11:52 PM 32.0 °F 27.5 °F 25.0 °F 75% 29.83 in 10.0 mi Variable 4.6 mph - N/A   Clear